Weather Roundup
Issued by NWS Chicago, IL

Home | Current Version | Previous Version | Graphics & Text | Print | Product List | Glossary On
Versions: 1 2 3 4 5 6 7 8 9 10 11 12 13 14 15 16 17 18 19 20 21 22 23 24 25 26 27 28 29 30 31 32 33 34 35 36 37 38 39 40 41 42 43 44 45 46 47 48 49 50
000
NZUS59 KLOT 261200
HRRLOT

CHICAGO AREA WEATHER ROUNDUP
NATIONAL WEATHER SERVICE CHICAGO/ROMEOVILLE IL
600 AM CST FRI DEC 26 2014

NOTE: "FAIR" INDICATES FEW OR NO CLOUDS BELOW 12,000 FEET WITH NO
SIGNIFICANT WEATHER AND/OR OBSTRUCTIONS TO VISIBILITY.

* THESE STATIONS ARE NOT UNDER NWS QUALITY CONTROL. THEY ALSO MAY NOT
  REPORT WEATHER SUCH AS PRECIPITATION OR FOG.

ILZ005-006-012>014-019>023-261300-
NORTHEAST ILLINOIS

CITY           SKY/WX    TMP DP  RH WIND       PRES   REMARKS
OHARE          PTCLDY    37  32  82 S9        29.98S
6HR MIN TEMP:  36; 6HR MAX TEMP:  39;

MIDWAY         PTCLDY    38  33  82 S9        30.00S
6HR MIN TEMP:  38; 6HR MAX TEMP:  41;

AURORA         PTCLDY    33  29  85 S3        29.99S
6HR MIN TEMP:  33; 6HR MAX TEMP:  37;

WAUKEGAN       MOCLDY    38  32  79 SW13      29.97R
6HR MIN TEMP:  38; 6HR MAX TEMP:  40;

DUPAGE AIRPORT PTCLDY    33  30  88 S8        29.98S WCI  26
6HR MIN TEMP:  33; 6HR MAX TEMP:  38;

WHEELING       PTCLDY    37  32  82 S9        30.01R
6HR MIN TEMP:  37; 6HR MAX TEMP:  39;

NORTHERLY IS     N/A     38  32  79 W6          N/A
$$

WIZ051-052-058>065-066-070>072-261300-
SOUTHEAST WISCONSIN

CITY           SKY/WX    TMP DP  RH WIND       PRES   REMARKS
MILWAUKEE      CLOUDY    39  33  79 SW12      29.96R
6HR MIN TEMP:  38; 6HR MAX TEMP:  40;

KENOSHA*       CLOUDY    39  34  82 SW12      29.97R
RACINE*        CLOUDY    39  33  79 SW10      29.98R
WAUKESHA       PTCLDY    37  34  87 S7        29.95R
$$

INZ001>003-010>013-019-020-261300-
NORTHWEST INDIANA

CITY           SKY/WX    TMP DP  RH WIND       PRES   REMARKS
GARY*          CLEAR     39  30  70 S10G23    30.03S
MICHIGAN CITY* NOT AVBL
RENSSELAER*    NOT AVBL
$$

LMZ740>746-261300-
SOUTHERN LAKE MICHIGAN

STATION/POSITION TIME  SKY/WX   TEMP WIND        PRES    VSBY
                                AIR  DIR/SP/G
                 (UTC)          (F)  (DEG/KT/KT) (MB)    (MI)
HARRISON CRIB    1100            38  200/ 25/ 30   N/A
BURNHAM HARBOR   1200            38  220/  6/ 12   N/A
CALUMET HARBOR   1100            37  190/  8/ 12 1015.1S
BURNS HARBOR     NOT AVBL
MICHIGAN CITY    1100            37  160/ 18/ 25   N/A
$$

ABBREVIATIONS USED IN REMARKS
   TC - TEMPERATURE IN CELSIUS
  WCI - WIND CHILL INDEX
   HX - HEAT INDEX
  VSB - VISIBILITY
$$


USA.gov is the U.S. government's official web portal to all federal, state and local government web resources and services.